When you browse on this site, cookies collect data to enhance your experience and personalize the content and advertising you see.
Visit our Privacy Policy to learn more. By continuing to use the site, you agree to this use of cookies and data.
  • în România
  • Lista ţărilor
  • Pe 7 zile
  • Temperatura apei
  • Hartă satelitară
  • Meteo pe hartă
  • Widget-uri
  • user-avatar
    Intrare

    Meteo pe oră la Uyna

    Astăzi, 25 Iunie, Marţi

    Timp Temperatura Precipitaţii Vânt Presiune Umiditate
    00:00 +21°C° 0 mm 0 m/s 741 mmHg 99%
    01:00 +21°C° 0 mm 0 m/s 740 mmHg 99%
    02:00 +21°C° 0 mm 0 m/s 740 mmHg 99%
    03:00 +21°C° 0 mm 0 m/s 739 mmHg 99%
    04:00 +22°C° 0 mm 0 m/s 740 mmHg 98%
    05:00 +22°C° 0 mm 0 m/s 740 mmHg 97%
    06:00 +22°C° 0 mm 0 m/s 740 mmHg 96%
    07:00 +23°C° 0 mm 0 m/s 740 mmHg 92%
    08:00 +24°C° 0 mm 0 m/s 741 mmHg 88%
    09:00 +25°C° 0 mm 0 m/s 741 mmHg 83%
    10:00 +28°C° 0.4 mm 1 m/s 741 mmHg 80%
    11:00 +30°C° 0.4 mm 1 m/s 740 mmHg 77%
    12:00 +31°C° 0.4 mm 1 m/s 740 mmHg 73%
    13:00 +30°C° 2.2 mm 1 m/s 740 mmHg 79%
    14:00 +30°C° 2.2 mm 1 m/s 739 mmHg 85%
    15:00 +29°C° 2.2 mm 1 m/s 738 mmHg 91%
    16:00 +28°C° 1.3 mm 1 m/s 739 mmHg 93%
    17:00 +27°C° 1.3 mm 1 m/s 739 mmHg 95%
    18:00 +26°C° 1.3 mm 1 m/s 739 mmHg 97%
    19:00 +24°C° 0.4 mm 0 m/s 740 mmHg 98%
    20:00 +23°C° 0.4 mm 0 m/s 740 mmHg 98%
    21:00 +23°C° 0.4 mm 0 m/s 741 mmHg 99%
    22:00 +23°C° 0.1 mm 0 m/s 741 mmHg 99%
    23:00 +23°C° 0.1 mm 0 m/s 741 mmHg 99%

    Mâine, 26 Iunie, Miercuri

    Timp Temperatura Precipitaţii Vânt Presiune Umiditate
    00:00 +23°C° 0.1 mm 0 m/s 740 mmHg 99%
    01:00 +23°C° 0.1 mm 0 m/s 740 mmHg 99%
    02:00 +23°C° 0.1 mm 0 m/s 740 mmHg 99%
    03:00 +23°C° 0.1 mm 0 m/s 740 mmHg 99%
    04:00 +23°C° 0.2 mm 0 m/s 740 mmHg 99%
    05:00 +23°C° 0.2 mm 0 m/s 740 mmHg 99%
    06:00 +25°C° 0.2 mm 1 m/s 740 mmHg 99%
    07:00 +26°C° 0.7 mm 1 m/s 740 mmHg 97%
    08:00 +27°C° 0.7 mm 1 m/s 740 mmHg 95%
    09:00 +28°C° 0.7 mm 1 m/s 741 mmHg 92%
    10:00 +28°C° 1.7 mm 1 m/s 740 mmHg 92%
    11:00 +29°C° 1.7 mm 1 m/s 740 mmHg 92%
    12:00 +29°C° 1.7 mm 1 m/s 740 mmHg 91%
    13:00 +29°C° 1.9 mm 1 m/s 740 mmHg 92%
    14:00 +28°C° 1.9 mm 1 m/s 739 mmHg 93%
    15:00 +28°C° 1.9 mm 1 m/s 739 mmHg 94%
    16:00 +27°C° 1.5 mm 1 m/s 739 mmHg 95%
    17:00 +27°C° 1.5 mm 1 m/s 739 mmHg 96%
    18:00 +26°C° 1.5 mm 1 m/s 739 mmHg 98%
    19:00 +25°C° 0.6 mm 1 m/s 740 mmHg 98%
    20:00 +23°C° 0.6 mm 0 m/s 740 mmHg 98%
    21:00 +23°C° 0.6 mm 0 m/s 741 mmHg 99%
    22:00 +22°C° 0.1 mm 0 m/s 740 mmHg 99%
    23:00 +22°C° 0.1 mm 0 m/s 740 mmHg 99%

    Poimâine, 27 Iunie, Joi

    Timp Temperatura Precipitaţii Vânt Presiune Umiditate
    00:00 +22°C° 0.1 mm 0 m/s 740 mmHg 99%
    01:00 +22°C° 0.1 mm 0 m/s 740 mmHg 99%
    02:00 +22°C° 0.1 mm 0 m/s 739 mmHg 99%
    03:00 +22°C° 0.1 mm 0 m/s 739 mmHg 99%
    04:00 +22°C° 0.1 mm 0 m/s 739 mmHg 99%
    05:00 +22°C° 0.1 mm 0 m/s 739 mmHg 99%
    06:00 +22°C° 0.1 mm 0 m/s 739 mmHg 99%
    07:00 +26°C° 0.2 mm 1 m/s 740 mmHg 91%
    08:00 +28°C° 0.2 mm 1 m/s 740 mmHg 84%
    09:00 +29°C° 0.2 mm 2 m/s 741 mmHg 76%
    10:00 +30°C° 0.4 mm 2 m/s 740 mmHg 75%
    11:00 +31°C° 0.4 mm 2 m/s 740 mmHg 74%
    12:00 +31°C° 0.4 mm 2 m/s 739 mmHg 72%
    13:00 +31°C° 0.6 mm 2 m/s 739 mmHg 75%
    14:00 +31°C° 0.6 mm 2 m/s 738 mmHg 78%
    15:00 +30°C° 0.6 mm 2 m/s 738 mmHg 81%
    16:00 +29°C° 0.4 mm 2 m/s 738 mmHg 85%
    17:00 +28°C° 0.4 mm 1 m/s 738 mmHg 89%
    18:00 +26°C° 0.4 mm 1 m/s 739 mmHg 94%
    19:00 +25°C° 0.1 mm 1 m/s 739 mmHg 95%
    20:00 +25°C° 0.1 mm 1 m/s 740 mmHg 97%
    21:00 +24°C° 0.1 mm 1 m/s 741 mmHg 98%
    22:00 +24°C° 0.1 mm 1 m/s 741 mmHg 99%
    23:00 +24°C° 0.1 mm 1 m/s 740 mmHg 99%

    28 Iunie, Vineri

    Timp Temperatura Precipitaţii Vânt Presiune Umiditate
    00:00 +22°C° 0.1 mm 0 m/s 740 mmHg 99%
    01:00 +22°C° 0.1 mm 0 m/s 740 mmHg 99%
    02:00 +21°C° 0.1 mm 0 m/s 740 mmHg 98%
    03:00 +21°C° 0.1 mm 0 m/s 739 mmHg 98%
    04:00 +21°C° 0.1 mm 0 m/s 739 mmHg 98%
    05:00 +22°C° 0.1 mm 0 m/s 740 mmHg 98%
    06:00 +22°C° 0.1 mm 0 m/s 740 mmHg 98%
    07:00 +25°C° 0.2 mm 1 m/s 740 mmHg 91%
    08:00 +27°C° 0.2 mm 1 m/s 740 mmHg 84%
    09:00 +29°C° 0.2 mm 2 m/s 741 mmHg 77%
    10:00 +29°C° 0.6 mm 2 m/s 740 mmHg 77%
    11:00 +29°C° 0.6 mm 2 m/s 740 mmHg 77%
    12:00 +29°C° 0.6 mm 2 m/s 740 mmHg 77%
    13:00 +29°C° 0.8 mm 2 m/s 739 mmHg 80%
    14:00 +29°C° 0.8 mm 2 m/s 739 mmHg 82%
    15:00 +29°C° 0.8 mm 2 m/s 738 mmHg 85%
    16:00 +27°C° 0.9 mm 1 m/s 739 mmHg 89%
    17:00 +26°C° 0.9 mm 1 m/s 739 mmHg 93%
    18:00 +25°C° 0.9 mm 1 m/s 739 mmHg 97%
    19:00 +25°C° 0.2 mm 1 m/s 740 mmHg 98%
    20:00 +22°C° 0.2 mm 0 m/s 740 mmHg 98%
    21:00 +21°C° 0.2 mm 0 m/s 741 mmHg 99%
    22:00 +21°C° 0.2 mm 0 m/s 741 mmHg 99%
    23:00 +21°C° 0.2 mm 0 m/s 740 mmHg 99%

    29 Iunie, Sâmbătă

    Timp Temperatura Precipitaţii Vânt Presiune Umiditate
    00:00 +21°C° 0.2 mm 0 m/s 740 mmHg 99%
    01:00 +21°C° 0.1 mm 0 m/s 740 mmHg 99%
    02:00 +21°C° 0.1 mm 0 m/s 740 mmHg 99%
    03:00 +21°C° 0.1 mm 0 m/s 739 mmHg 99%
    04:00 +21°C° 0.1 mm 0 m/s 740 mmHg 99%
    05:00 +21°C° 0.1 mm 0 m/s 740 mmHg 99%
    06:00 +22°C° 0.1 mm 0 m/s 740 mmHg 99%
    07:00 +25°C° 0.1 mm 1 m/s 740 mmHg 95%
    08:00 +26°C° 0.1 mm 1 m/s 741 mmHg 90%
    09:00 +27°C° 0.1 mm 1 m/s 741 mmHg 86%
    10:00 +27°C° 0.7 mm 1 m/s 741 mmHg 87%
    11:00 +27°C° 0.7 mm 1 m/s 740 mmHg 89%
    12:00 +28°C° 0.7 mm 1 m/s 740 mmHg 90%
    13:00 +27°C° 0.7 mm 1 m/s 739 mmHg 91%
    14:00 +27°C° 0.7 mm 1 m/s 739 mmHg 93%
    15:00 +27°C° 0.7 mm 1 m/s 739 mmHg 95%
    16:00 +24°C° 1 mm 0 m/s 739 mmHg 96%
    17:00 +24°C° 1 mm 0 m/s 739 mmHg 97%
    18:00 +23°C° 1 mm 0 m/s 739 mmHg 98%
    19:00 +23°C° 0.6 mm 0 m/s 740 mmHg 98%
    20:00 +22°C° 0.6 mm 0 m/s 740 mmHg 98%
    21:00 +22°C° 0.6 mm 0 m/s 741 mmHg 99%
    22:00 +22°C° 0.6 mm 0 m/s 740 mmHg 99%
    23:00 +22°C° 0.6 mm 0 m/s 740 mmHg 99%

    30 Iunie, Duminică

    Timp Temperatura Precipitaţii Vânt Presiune Umiditate
    00:00 +22°C° 0.6 mm 0 m/s 740 mmHg 99%
    01:00 +22°C° 0.5 mm 0 m/s 740 mmHg 99%
    02:00 +22°C° 0.5 mm 0 m/s 740 mmHg 99%
    03:00 +22°C° 0.5 mm 0 m/s 739 mmHg 99%
    04:00 +22°C° 0.2 mm 0 m/s 739 mmHg 99%
    05:00 +22°C° 0.2 mm 0 m/s 739 mmHg 99%
    06:00 +22°C° 0.2 mm 0 m/s 740 mmHg 99%
    07:00 +25°C° 0.1 mm 1 m/s 740 mmHg 95%
    08:00 +27°C° 0.1 mm 1 m/s 740 mmHg 90%
    09:00 +28°C° 0.1 mm 1 m/s 741 mmHg 86%
    10:00 +28°C° 2.1 mm 1 m/s 740 mmHg 88%
    11:00 +28°C° 2.1 mm 2 m/s 740 mmHg 91%
    12:00 +28°C° 2.1 mm 2 m/s 739 mmHg 94%
    13:00 +28°C° 2.2 mm 2 m/s 739 mmHg 94%
    14:00 +27°C° 2.2 mm 1 m/s 739 mmHg 95%
    15:00 +27°C° 2.2 mm 1 m/s 738 mmHg 96%
    16:00 +27°C° 0.2 mm 1 m/s 738 mmHg 97%
    17:00 +26°C° 0.2 mm 1 m/s 739 mmHg 97%
    18:00 +24°C° 0.2 mm 0 m/s 739 mmHg 98%
    19:00 +23°C° 0.1 mm 0 m/s 740 mmHg 99%
    20:00 +23°C° 0.1 mm 0 m/s 740 mmHg 99%
    21:00 +23°C° 0.1 mm 0 m/s 741 mmHg 99%
    22:00 +23°C° 0.2 mm 0 m/s 741 mmHg 99%
    23:00 +23°C° 0.2 mm 0 m/s 741 mmHg 99%
    Arată mai mult